Location: Newark
(49.4900°N, 20.6656°E)
Time: 16:51:41
(UTC+00:00)

ISS - Visible Passes

Search period start: 30 September 2020 00:00
Search period end: 10 October 2020 00:00
Orbit: 419 x 421 km, 51.6° (Epoch: 01 October)

Date Brightness Start Highest point End Pass type
(mag) Time Alt. Az. Time Alt. Az. Time Alt. Az.
30 Sep -3.6 18:17:56 10° WNW 18:21:09 65° SW 18:21:09 65° SW visible
01 Oct -3.8 17:30:37 10° WNW 17:34:01 87° SSW 17:35:42 27° ESE visible
01 Oct -0.8 19:07:49 10° W 19:08:40 15° W 19:08:40 15° W visible
02 Oct -3.7 16:43:18 10° WNW 16:46:42 76° NNE 16:50:04 10° E visible
02 Oct -2.4 18:20:18 10° W 18:23:16 32° SW 18:23:16 32° SW visible
03 Oct -3.0 17:32:52 10° WNW 17:36:08 46° SSW 17:37:54 23° SE visible
04 Oct -3.4 16:45:31 10° WNW 16:48:52 65° SSW 16:52:13 10° ESE visible
04 Oct -1.3 18:23:11 10° W 18:25:12 15° SW 18:25:36 15° SSW visible
05 Oct -1.6 17:35:22 10° W 17:38:04 22° SW 17:40:25 12° SSE visible
06 Oct -2.1 16:47:48 10° W 16:50:51 32° SSW 16:53:53 10° SSE visible
08 Oct -0.9 16:50:37 10° WSW 16:52:37 15° SW 16:54:35 10° S visible
